Home > Weather > Rainy River > Past weeks

Flag for Canada Past Weather in Rainy River, Ontario, Canada — Yesterday and Last 2 Weeks

Now
81 °F

Partly sunny.


Feels Like: 86 °F
Forecast: 65 / 84 °F
Wind: 9 mph from South

Location: Baudette International Airport

Current Time: Jun 25, 2016 at 2:43:05 PM

Latest Report: Jun 25, 2016 at 1:53 PM


Visibility: 10 mi

Pressure: 29.60 "Hg

Humidity: 77%

Dew Point: 73 °F

Location of Rainy RiverLocation

Past Weather in Rainy River — Graph

°F

Rainy River Temperature Yesterday

Maximum temperature yesterday: 81 °F (at 3:53 PM)
Minimum temperature yesterday: 54 °F (at 3:53 AM)
Average temperature yesterday: 69 °F

High & Low Weather Summary for the Past Weeks

 TemperatureHumidityPressure
High85 °F (Jun 10, 4:53 PM)100% (Jun 18, 5:53 AM)30.26 "Hg (Jun 18, 5:53 AM)
Low49 °F (Jun 22, 11:53 PM)34% (Jun 11, 5:53 PM)29.61 "Hg (Jun 25, 11:53 AM)
Average64 °F73%29.94 "Hg
* Reported Jun 10 12:53 PM — Jun 25 12:53 PM, Rainy River, Weather by CustomWeather, © 2016

Note: Actual official high and low records may vary slightly from our data, if they occured in-between our weather recording intervals... More about our weather records

Advertising

Rainy River Weather History for the Previous 24 Hours

Scroll right to see more
 ConditionsComfort  
Time TempWeatherWind HumidityBarometerVisibility
12:53 PM
Sat, Jun 25
79 °FOvercast.10 mph79%29.61 "Hg10 mi
11:53 AM80 °FPassing clouds.17 mph74%29.61 "Hg10 mi
10:53 AM78 °FPassing clouds.15 mph76%29.61 "Hg10 mi
9:53 AM73 °FPassing clouds.8 mph84%29.63 "Hg10 mi
8:53 AM68 °FPartly sunny.10 mph90%29.65 "Hg10 mi
7:53 AM66 °FSunny.13 mph90%29.67 "Hg10 mi
6:53 AM66 °FOvercast.14 mph90%29.67 "Hg10 mi
6:03 AM67 °FHeavy rain. Fog.6 mph90%29.69 "Hg4 mi
5:53 AM66 °FOvercast.26 mph93%29.75 "Hg9 mi
4:53 AM66 °FLight rain. Mostly cloudy.20 mph93%29.65 "Hg10 mi
4:00 AM66 °FHeavy rain. Fog.13 mph93%29.77 "Hg2 mi
2:53 AM69 °FPassing clouds.15 mph79%29.70 "Hg10 mi
1:53 AM69 °FOvercast.13 mph79%29.78 "Hg10 mi
12:53 AM68 °FMostly cloudy.10 mph82%29.80 "Hg10 mi
11:53 PM
Fri, Jun 24
70 °FPartly cloudy.9 mph73%29.79 "Hg10 mi
10:53 PM70 °FOvercast.8 mph73%29.81 "Hg10 mi
9:53 PM70 °FLight rain. Overcast.15 mph73%29.80 "Hg10 mi
8:53 PM74 °FPartly sunny.8 mph60%29.81 "Hg10 mi
7:53 PM76 °FPartly sunny.10 mph56%29.83 "Hg10 mi
6:53 PM77 °FOvercast.10 mph50%29.86 "Hg10 mi
5:53 PM80 °FPassing clouds.9 mph47%29.87 "Hg10 mi
4:53 PM80 °FSunny.12 mph45%29.89 "Hg10 mi
3:53 PM81 °FSunny.13 mph45%29.91 "Hg10 mi
2:53 PM80 °FSunny.14 mph45%29.92 "Hg10 mi
Weather by CustomWeather, © 2016

See weather overviewHow to use our weather pages